Location: Dead Woman Crossing
(43.5369°N, 106.3228°W)
Time: 16:23:32
(UTC+00:00)

ITUPSAT 1 - Pass Details

Date: 04 July 2022
Orbit: 701 x 711 km, 98.6° (Epoch: 13 August)

Event Time Altitude Azimuth Distance (km) Brightness Sun altitude
Rises 04:56:48 0° 357° (N) 3,112 ? -16.9°
Reaches altitude 10° 04:59:46 10° 338° (NNW) 2,190 ? -17.2°
Maximum altitude 05:02:47 17° 299° (WNW) 1,765 ? -17.5°
Drops below altitude 10° 05:05:47 10° 260° (W) 2,184 ? -17.7°
Sets 05:08:45 0° 240° (WSW) 3,100 ? -18.0°
